Miscellaneous Local Product
Issued by NWS Hastings, NE

Home | Current Version | Previous Version | Graphics & Text | Print | Product List | Glossary On
Versions: 1 2 3 4 5 6 7 8 9 10 11 12 13 14 15 16 17 18 19 20 21 22 23 24 25 26 27 28 29 30 31 32 33 34 35 36 37 38 39 40 41 42 43 44 45 46 47 48 49 50
064
AXUS43 KGID 221402
MISGRI

GID CWA HOURLY WEATHER ROUNDUP
NATIONAL WEATHER SERVICE HASTINGS NE
900 AM CDT SAT APR 22 2017

NOTE: "FAIR" INDICATES FEW OR NO CLOUDS BELOW 12,000 FEET WITH NO
SIGNIFICANT WEATHER AND/OR OBSTRUCTIONS TO VISIBILITY.

...SOUTH CENTRAL NEBRASKA...

CITY           SKY/WX    TMP DP  RH WIND       PRES   REMARKS
GRAND ISLAND   CLOUDY    47  40  76 N8        30.29R
HASTINGS       MOSUNNY   48  38  68 N7        30.29R
KEARNEY        MOSUNNY   46  36  66 N6        30.30R
ORD            SUNNY     47  40  76 N3        30.29R
YORK           CLOUDY    48  41  76 NE8       30.27S
AURORA         MOSUNNY   51  39  65 N9        30.28R
LEXINGTON      PTSUNNY   41  36  80 NW6       30.31R
HOLDREGE       MOSUNNY   46  37  71 N5        30.29R
HEBRON         MOSUNNY   49  37  62 NE8       30.26R

...NEBRASKA PANHANDLE...

CITY           SKY/WX    TMP DP  RH WIND       PRES   REMARKS
CHADRON        SUNNY     42  35  76 CALM      30.28S
ALLIANCE       SUNNY     40  36  86 S6        30.29R
SCOTTSBLUFF    SUNNY     42  37  82 E3        30.29R
SIDNEY         SUNNY     43  39  86 CALM      30.30R

...WESTERN AND NORTH CENTRAL NEBRASKA...

CITY           SKY/WX    TMP DP  RH WIND       PRES   REMARKS
VALENTINE      SUNNY     41  35  79 W3        30.30S
AINSWORTH      SUNNY     44  39  83 W6        30.30R
ONEILL         SUNNY     49  40  69 CALM      30.30S
BROKEN BOW     SUNNY     47  37  68 NW5       30.29R
IMPERIAL       MOSUNNY   42  37  82 N5        30.31R
NORTH PLATTE   SUNNY     42  37  82 W3        30.31R
MCCOOK         MOSUNNY   43  37  79 NW6       30.31R

...EASTERN NEBRASKA...

CITY           SKY/WX    TMP DP  RH WIND       PRES   REMARKS
NORFOLK        MOSUNNY   48  40  73 NW3       30.27R
SO SIOUX CITY  CLOUDY    49  43  80 N7        30.28S
TEKAMAH        MOSUNNY   50  41  71 N10       30.27R
COLUMBUS       PTSUNNY   48  37  66 N8        30.28S
ALBION         SUNNY     48  42  79 NW6       30.29R
OMAHA EPPLEY   CLOUDY    48  40  73 N10       30.25S
OFFUTT AFB     MOSUNNY   50  39  64 NE9       30.24S
MILLARD        MOSUNNY   52  40  64 N5        30.26R
LINCOLN        MOSUNNY   53  40  61 N10       30.27R
NEBRASKA CITY  CLOUDY    48  36  62 N9        30.23S
BEATRICE       MOSUNNY   51  40  66 N10       30.24S
FALLS CITY     MOSUNNY   46  41  82 NW6       30.21R

...NORTHERN KANSAS...

CITY           SKY/WX    TMP DP  RH WIND       PRES   REMARKS
GOODLAND       CLOUDY    42  40  92 NW5       30.29S
HILL CITY      CLOUDY    48  41  76 N13       30.29R
NORTON         SUNNY     45  37  76 N6        30.29R
PHILLIPSBURG   SUNNY     46  39  76 N7        30.29R
SMITH CENTER   MOSUNNY   46  39  76 N9        30.28R
HAYS           CLOUDY    46  40  79 N12       30.26R
RUSSELL        CLOUDY    46  40  79 N12       30.23R
CONCORDIA      CLOUDY    47  40  76 N9        30.24R
SALINA         CLOUDY    51  40  65 N12       30.22R
TOPEKA         CLOUDY    51  41  68 N14       30.18R



USA.gov is the U.S. government's official web portal to all federal, state and local government web resources and services.